Date String (YYYY-MM-DD hh:mm:ss) UTC,Instrument flags,absolute air pressure of the measurement (hPa),sample flow rate (lpm),inlet stack bypass flow (lpm),air temperature of the measurement (°C),ambient temperature measured by the external sensor (°C),aerosol sample conditioner tube jacket temperature (°C),OPC LED temperature (°C),internal box temperature (°C),relative humidity of the measurement (%),span deviation,mass concentration of particles derived from Lorenz-Mie calculation of OPC scattering (μg/m³),mass concentration of particles derived from Lorenz-Mie calculation of OPC scattering (μg/m³),mass concentration of particles derived from Lorenz-Mie calculation of OPC scattering (μg/m³)
DateTimeUTC,F1_M11,P_M11,Q1_M11,Q2_M11,T1_M11,T2_M11,T3_M11,T4_M11,T5_M11,U1_M11,ZSPAN_M11,X0_M11,X2_M11,X1_M11
2023-06-16 01:00:00,SystemResetWarning,0826.6,5.01,000.00,029.7,027.6,000.0,038.2,031.3,29.7,0000.0,0006.58,0003.13,0002.26
2023-06-16 01:01:00,SystemResetWarning,0826.6,4.99,000.00,029.7,027.8,000.0,038.2,031.3,29.7,0000.0,0007.19,0003.13,0002.29
2023-06-16 01:02:00,SystemResetWarning,0826.6,4.99,000.00,029.7,028.0,000.0,038.2,031.3,29.7,0000.0,0007.08,0003.12,0002.30
2023-06-16 01:03:00,SystemResetWarning,0826.8,5.01,000.00,029.8,028.1,000.0,038.2,031.4,29.5,0000.0,0007.07,0003.13,0002.32
2023-06-16 01:04:00,SystemResetWarning,0826.8,5.01,000.00,029.8,028.3,000.0,038.3,031.4,29.0,0000.0,0006.81,0003.10,0002.33
2023-06-16 01:05:00,SystemResetWarning,0826.8,5.00,000.00,029.8,028.4,000.0,038.3,031.5,28.9,0000.0,0006.69,0003.10,0002.33
2023-06-16 01:06:00,SystemResetWarning,0826.9,5.00,000.00,029.9,028.5,000.0,038.3,031.5,29.3,0000.0,0006.90,0003.14,0002.35
2023-06-16 01:07:00,SystemResetWarning,0826.9,5.00,000.00,029.9,028.5,000.0,038.3,031.5,30.3,0000.0,0006.76,0003.14,0002.37
2023-06-16 01:08:00,SystemResetWarning,0827.0,4.99,000.00,029.9,028.3,000.0,038.3,031.6,30.2,0000.0,0006.86,0003.16,0002.37
2023-06-16 01:09:00,SystemResetWarning,0826.9,5.00,000.00,029.9,026.3,000.0,038.3,031.4,30.6,0000.0,0006.91,0003.18,0002.38
2023-06-16 01:10:00,SystemResetWarning,0827.0,5.00,000.00,029.9,025.2,000.0,038.2,031.4,30.1,0000.0,0006.89,0003.20,0002.40
2023-06-16 01:11:00,SystemResetWarning,0827.0,5.00,000.00,029.8,025.3,000.0,038.2,031.1,30.8,0000.0,0006.28,0003.21,0002.41
2023-06-16 01:12:00,SystemResetWarning,0827.0,5.01,000.00,029.7,025.7,000.0,038.2,031.0,31.1,0000.0,0005.53,0003.20,0002.40
2023-06-16 01:13:00,SystemResetWarning,0827.0,4.99,000.00,029.7,026.1,000.0,038.2,031.0,30.5,0000.0,0005.59,0003.21,0002.39
2023-06-16 01:14:00,SystemResetWarning,0827.0,5.00,000.00,029.6,026.6,000.0,038.2,031.1,30.3,0000.0,0005.78,0003.23,0002.38
2023-06-16 01:15:00,SystemResetWarning,0827.0,4.99,000.00,029.7,026.9,000.0,038.2,031.1,29.7,0000.0,0006.14,0003.22,0002.37
2023-06-16 01:16:00,SystemResetWarning,0827.0,4.99,000.00,029.7,027.3,000.0,038.2,031.2,29.8,0000.0,0006.25,0003.24,0002.37
2023-06-16 01:17:00,SystemResetWarning,0827.1,5.00,000.00,029.7,027.5,000.0,038.2,031.2,31.0,0000.0,0006.16,0003.24,0002.38
2023-06-16 01:18:00,SystemResetWarning,0827.1,5.01,000.00,029.7,027.8,000.0,038.2,031.3,31.3,0000.0,0006.05,0003.22,0002.37
2023-06-16 01:19:00,SystemResetWarning,0827.1,5.01,000.00,029.7,027.9,000.0,038.2,031.3,30.8,0000.0,0006.86,0003.21,0002.36
2023-06-16 01:20:00,SystemResetWarning,0827.2,5.01,000.00,029.8,028.1,000.0,038.3,031.4,30.8,0000.0,0007.34,0003.18,0002.36
2023-06-16 01:21:00,SystemResetWarning,0827.2,5.00,000.00,029.8,028.2,000.0,038.3,031.4,30.7,0000.0,0007.28,0003.15,0002.34
2023-06-16 01:22:00,SystemResetWarning,0827.3,5.00,000.00,029.8,028.3,000.0,038.3,031.5,30.6,0000.0,0007.34,0003.16,0002.35
2023-06-16 01:23:00,SystemResetWarning,0827.4,5.00,000.00,029.9,028.4,000.0,038.3,031.5,31.0,0000.0,0007.34,0003.15,0002.35
2023-06-16 01:24:00,SystemResetWarning,0827.8,5.00,000.00,029.9,028.5,000.0,038.3,031.5,30.9,0000.0,0007.34,0003.16,0002.34
2023-06-16 01:25:00,SystemResetWarning,0827.6,5.00,000.00,029.9,028.6,000.0,038.4,031.6,30.8,0000.0,0007.25,0003.15,0002.35
2023-06-16 01:26:00,SystemResetWarning,0827.7,4.98,000.00,030.0,027.6,000.0,038.3,031.6,30.9,0000.0,0006.98,0003.19,0002.36
2023-06-16 01:27:00,SystemResetWarning,0827.7,5.00,000.00,029.9,025.6,000.0,038.3,031.4,30.1,0000.0,0007.27,0003.21,0002.36
2023-06-16 01:28:00,SystemResetWarning,0827.8,5.00,000.00,029.9,025.2,000.0,038.2,031.3,30.2,0000.0,0007.46,0003.21,0002.36
2023-06-16 01:29:00,SystemResetWarning,0827.8,5.01,000.00,029.8,025.4,000.0,038.2,031.1,30.5,0000.0,0007.81,0003.21,0002.35
2023-06-16 01:30:00,SystemResetWarning,0828.0,5.00,000.00,029.7,025.8,000.0,038.2,031.1,30.6,0000.0,0008.15,0003.24,0002.36
2023-06-16 01:31:00,SystemResetWarning,0828.1,4.99,000.00,029.7,026.3,000.0,038.2,031.1,30.6,0000.0,0008.18,0003.27,0002.36
2023-06-16 01:32:00,SystemResetWarning,0828.1,4.99,000.00,029.7,026.7,000.0,038.2,031.1,30.1,0000.0,0008.25,0003.27,0002.36
2023-06-16 01:33:00,SystemResetWarning,0828.2,4.99,000.00,029.7,027.0,000.0,038.2,031.1,29.4,0000.0,0008.19,0003.26,0002.35
2023-06-16 01:34:00,SystemResetWarning,0828.2,5.00,000.00,029.7,027.3,000.0,038.2,031.2,29.3,0000.0,0008.21,0003.27,0002.35
2023-06-16 01:35:00,SystemResetWarning,0828.2,5.01,000.00,029.7,027.6,000.0,038.2,031.2,29.0,0000.0,0008.29,0003.30,0002.37
2023-06-16 01:36:00,SystemResetWarning,0828.3,5.01,000.00,029.7,027.8,000.0,038.3,031.3,29.3,0000.0,0008.28,0003.30,0002.38
2023-06-16 01:37:00,SystemResetWarning,0828.4,5.00,000.00,029.8,028.0,000.0,038.3,031.3,29.1,0000.0,0008.35,0003.27,0002.39
2023-06-16 01:38:00,SystemResetWarning,0828.5,5.00,000.00,029.8,028.1,000.0,038.3,031.3,28.8,0000.0,0008.09,0003.26,0002.40
2023-06-16 01:39:00,SystemResetWarning,0828.6,4.99,000.00,029.8,028.3,000.0,038.3,031.4,29.0,0000.0,0008.08,0003.25,0002.39
2023-06-16 01:40:00,SystemResetWarning,0828.6,5.00,000.00,029.8,028.4,000.0,038.3,031.4,28.4,0000.0,0007.85,0003.25,0002.41
2023-06-16 01:41:00,SystemResetWarning,0828.6,5.00,000.00,029.9,028.4,000.0,038.3,031.4,28.1,0000.0,0007.85,0003.23,0002.40
2023-06-16 01:42:00,SystemResetWarning,0828.5,5.00,000.00,029.9,028.5,000.0,038.3,031.5,27.6,0000.0,0007.48,0003.17,0002.36
2023-06-16 01:43:00,SystemResetWarning,0828.4,4.99,000.00,029.9,027.6,000.0,038.3,031.5,27.0,0000.0,0007.28,0003.12,0002.33
2023-06-16 01:44:00,SystemResetWarning,0828.3,5.00,000.00,029.9,025.6,000.0,038.3,031.2,26.9,0000.0,0007.20,0003.10,0002.30
2023-06-16 01:45:00,SystemResetWarning,0828.1,5.00,000.00,029.8,024.9,000.0,038.2,031.2,26.6,0000.0,0007.05,0003.03,0002.28
2023-06-16 01:46:00,SystemResetWarning,0828.0,5.00,000.00,029.7,025.2,000.0,038.2,031.0,27.3,0000.0,0006.99,0003.01,0002.26
2023-06-16 01:47:00,SystemResetWarning,0827.7,5.01,000.00,029.7,025.6,000.0,038.2,031.0,28.3,0000.0,0007.53,0003.18,0002.31
2023-06-16 01:48:00,SystemResetWarning,0827.7,4.99,000.00,029.6,026.1,000.0,038.2,031.0,27.2,0000.0,0007.52,0003.23,0002.30
2023-06-16 01:49:00,SystemResetWarning,0827.5,5.00,000.00,029.6,026.5,000.0,038.2,031.1,26.2,0000.0,0007.44,0003.22,0002.29
2023-06-16 01:50:00,SystemResetWarning,0827.6,5.00,000.00,029.6,026.8,000.0,038.2,031.1,26.5,0000.0,0007.28,0003.20,0002.26
2023-06-16 01:51:00,SystemResetWarning,0827.6,4.99,000.00,029.6,027.1,000.0,038.2,031.1,26.5,0000.0,0007.34,0003.24,0002.25
2023-06-16 01:52:00,SystemResetWarning,0827.6,4.99,000.00,029.6,027.4,000.0,038.2,031.2,26.3,0000.0,0006.31,0003.24,0002.22
2023-06-16 01:53:00,SystemResetWarning,0827.7,5.00,000.00,029.7,027.6,000.0,038.2,031.2,27.1,0000.0,0007.47,0003.29,0002.24
2023-06-16 01:54:00,SystemResetWarning,0827.8,5.02,000.00,029.7,027.8,000.0,038.2,031.3,27.1,0000.0,0007.73,0003.32,0002.23
2023-06-16 01:55:00,SystemResetWarning,0827.9,4.99,000.00,029.7,027.9,000.0,038.2,031.3,27.9,0000.0,0007.94,0003.39,0002.26
2023-06-16 01:56:00,SystemResetWarning,0828.0,4.99,000.00,029.7,028.1,000.0,038.2,031.3,28.2,0000.0,0008.13,0003.44,0002.27
2023-06-16 01:57:00,SystemResetWarning,0828.1,5.00,000.00,029.7,028.2,000.0,038.2,031.3,27.8,0000.0,0008.29,0003.48,0002.24
2023-06-16 01:58:00,SystemResetWarning,0828.2,5.00,000.00,029.8,028.2,000.0,038.2,031.4,27.5,0000.0,0008.06,0003.39,0002.16
2023-06-16 01:59:00,SystemResetWarning,0828.3,5.00,000.00,029.8,028.3,000.0,038.3,031.4,26.1,0000.0,0008.23,0003.33,0002.11
